Absecon, NJ

6:24 PM EDT on May 25, 2015 (GMT -0400)
Galloway Twp Police Dept | | Change Station
CLOSE
Current Station
Personal Weather Station
Location: Galloway, NJ
Elevation: 30 ft
Nearby Weather Stations

Elev 30 ft 39.46 °N, 74.50 °W | Updated 2 seconds ago

Clear
Clear
75.0 °F
Feels Like 77 °F
N
12.0
Wind Variable Wind from SW
Gusts 14.0 mph

Today
High -- | Low -- °F
--% Chance of Precip.
Yesterday
High -- | Low -- °F
Precip. -- in
5:36 AM 8:13 PM
First Quarter, 52% visible
Pressure 30.24 in
Visibility 10.0 miles
Clouds Clear
Heat Index 77 °F
Dew Point 60 °F
Humidity 60%
Rainfall in
Snow Depth Not available.
UV 2 out of 12
Pollen 9.10 out of 12
Air Quality Not available.
Flu Activity Sporadic
METAR KACY 252154Z 19016G25KT 10SM CLR 26/13 A3024 RMK AO2 SLP238 T02610133

More Conditions Fewer Conditions

Pressure 30.24 in
Visibility 10.0 miles
Clouds Clear
Heat Index 77 °F
Dew Point 60 °F
Humidity 60%
Rainfall in
Snow Depth Not available.
UV 2 out of 12
Pollen 9.10 out of 12
Air Quality Not available.
Flu Activity Sporadic
METAR KACY 252154Z 19016G25KT 10SM CLR 26/13 A3024 RMK AO2 SLP238 T02610133

More Conditions Fewer Conditions

10-Day Weather Forecast

Almanac

Astronomy

May. 25, 2015 Rise Set
Actual Time
Civil Twilight
Nautical Twilight
Astronomical Twilight
Moon
Length of Visible Light
Length of Day
Tomorrow will be .
, % of the Moon is Illuminated

Today's Extremes

State Highs State Lows

Community

WunderPhotos

Upload Photos

1,824,149 photos uploaded!

WunderBlogs® & News

Nearby

Air Quality

  Air Quality AQ Index Pollutant
Not available.

Snow Depth

Station Depth Elevation

Earthquake Activity

City Distance Mag. Time & Date
Minimum magnitude displayed is 2.5.

Coastal Water Temperatures

Place Temperature

Stations

Nearby Weather Stations

Station Location Temp. Windchill Dew Point Humidity Wind Precip. Elev Updated Type